Regional Weather Roundup
Issued by NWS

Home | Current Version | Previous Version | Graphics & Text | Print | Product List | Glossary On
Versions: 1 2 3 4 5 6 7 8 9 10 11 12 13 14 15 16 17 18 19 20 21 22 23 24 25 26 27 28 29 30 31 32 33 34 35 36 37 38 39 40 41 42 43 44 45 46 47 48 49 50
000
ASUS43 KOAX 280702
RWRNE

WEATHER ROUNDUP FOR NEBRASKA
NATIONAL WEATHER SERVICE OMAHA NE
100 AM CST SAT FEB 28 2015

NOTES: SATELLITE DATA IS BEING USED TO AUGMENT CLOUD COVER ABOVE
       12000 FEET.
       "FAIR" INDICATES FEW OR NO CLOUDS BELOW 12,000 FEET WITH NO
       SIGNIFICANT WEATHER AND/OR OBSTRUCTIONS TO VISIBILITY.

  * THESE STATIONS DO NOT REPORT WEATHER SUCH AS RAIN...SNOW OR FOG.

NEZ001>004-019>022-054>056-280800-
NEBRASKA PANHANDLE

CITY           SKY/WX    TMP DP  RH WIND       PRES   REMARKS
SCOTTSBLUFF    CLEAR     11   5  77 SE8       30.00F WCI  -1
ALLIANCE       CLEAR     10   5  80 S14       30.02F WCI  -6
CHADRON        CLEAR     16   7  67 S12       30.03F WCI   3
SIDNEY         CLOUDY     7   3  84 S13       30.01S FOG     WCI  -9
$$

NEZ057>060-069>072-079>082-280800-
SOUTHWEST NEBRASKA

CITY           SKY/WX    TMP DP  RH WIND       PRES   REMARKS
NORTH PLATTE   CLOUDY    15   5  64 S14       30.21S WCI   0
IMPERIAL         N/A     14   7  73 S15       30.15F WCI  -1
MCCOOK         CLOUDY    17   5  59 S12       30.25F WCI   4
$$

NEZ005>010-023>029-035>040-094-280800-
NORTH CENTRAL NEBRASKA

CITY           SKY/WX    TMP DP  RH WIND       PRES   REMARKS
VALENTINE      CLOUDY    18   6  59 S14       30.17F WCI   4
AINSWORTH      CLEAR     11   1  66 S10       30.20F WCI  -3
BROKEN BOW     CLEAR      9   2  73 S13G23    30.25F WCI  -7
ORD            CLEAR     10   0  63 S7        30.31F WCI  -1
$$

NEZ041-046>049-061>064-073>077-083>087-280800-
SOUTH CENTRAL NEBRASKA

CITY           SKY/WX    TMP DP  RH WIND       PRES   REMARKS
GRAND ISLAND   CLEAR     10   2  69 S10       30.38F WCI  -4
HASTINGS       CLEAR      9   1  70 S6        30.37S WCI  -1
HEBRON         CLEAR     11   2  69 S5        30.45S WCI   2
KEARNEY *      CLEAR      9   1  72 S10       30.34S WCI  -6
$$

NEZ011>018-030>034-042>045-280800-
NORTHEAST NEBRASKA

CITY           SKY/WX    TMP DP  RH WIND       PRES   REMARKS
NORFOLK        CLEAR      7   0  73 SE7       30.39F WCI  -5
BLAIR          CLEAR     10   2  71 SE7       30.46S WCI  -2
COLUMBUS *     CLEAR      7  -6  56 SE6       30.43S WCI  -3
FREMONT        CLEAR     11   2  65 SE6       30.46F WCI   2
TEKAMAH        CLEAR      5  -1  76 CALM      30.50F
$$

NEZ050>053-065>068-078-088>093-280800-
SOUTHEAST NEBRASKA

CITY           SKY/WX    TMP DP  RH WIND       PRES   REMARKS
LINCOLN        CLEAR      9   1  70 S8        30.48F WCI  -3
OMAHA EPPLEY   CLEAR      9   1  70 SE6       30.52S WCI  -1
FALLS CITY     CLOUDY    11   3  70 SE3       30.52F
$$

NEZ044-045-051>053-067-280800-
OMAHA AREA

CITY           SKY/WX    TMP DP  RH WIND       PRES   REMARKS
OMAHA EPPLEY   CLEAR      9   1  70 SE6       30.52S WCI  -1
BLAIR          CLEAR     10   2  71 SE7       30.46S WCI  -2
FREMONT        CLEAR     11   2  65 SE6       30.46F WCI   2
OFFUTT AFB     CLEAR      9  -1  65 E6        30.50S WCI  -1
$$


USA.gov is the U.S. government's official web portal to all federal, state and local government web resources and services.